Weather History for Osceola, WI

Change the Weather History Date:

Friday, November 23, 2012

  Actual Average (KMSP) Record (KMSP)
Temperature  
Mean Temperature 20 °F 29 °F  
Max Temperature 26 °F 37 °F 55 °F (1905)
Min Temperature 15 °F 22 °F -6 °F (1898)
Degree Days  
Heating Degree Days 44 36  
Month to date heating degree days 675  
Since 1 July heating degree days 1355  
Cooling Degree Days 0 0  
Month to date cooling degree days 0  
Year to date cooling degree days 753  
Moisture  
Dew Point 17 °F    
Average Humidity 77    
Maximum Humidity 86    
Minimum Humidity 68    
Precipitation  
Precipitation 0.00 in 0.06 in 0.89 in (1983)
Month to date precipitation 1.39  
Year to date precipitation 29.07  
Snow  
Snow 0.00 in 0.30 in 11.40 in (1983)
Month to date snowfall 6.3  
Since 1 July snowfall 6.9  
Since 1 September snowfall 6.9  
Snow Depth -    
Sea Level Pressure  
Sea Level Pressure 30.23 in    
Wind  
Wind Speed 16 mph (NW)    
Max Wind Speed 23 mph    
Max Gust Speed 32 mph    
Visibility 9 miles    
Events Snow    
T = Trace of Precipitation, MM = Missing Value Source: NWS Daily Summary

Daily Weather History Graph

Daily Weather History Graph

Search for Another Location

Airport:

Trip Planner

Search our weather history database for the weather conditions in past years. The results will help you decide how hot, cold, wet, or windy it might be!

Date:

Astronomy

Nov. 23, 2012 Rise Set
Actual Time 7:20 AM CST 4:33 PM CST
Civil Twilight 6:47 AM CST 5:06 PM CST
Nautical Twilight 6:11 AM CST 5:42 PM CST
Astronomical Twilight 5:36 AM CST 6:18 PM CST
Moon 1:58 PM CST (11/23) 2:28 AM CST (11/23)
Length of Visible Light 10h 18m
Length of Day
9h 13m
Waxing Gibbous, 80% of the Moon is Illuminated
Nov 23
Waxing Gibbous
Nov 28
Full
Dec 6
Last Quarter
Dec 13
New
Dec 19
First Quarter

Hourly Weather History & Observations

Time (CST) Temp. Windchill Dew Point Humidity Pressure Visibility Wind Dir Wind Speed Gust Speed Precip Events Conditions
12:15 AM 23.0 °F 9.6 °F 19.4 °F 86% 29.96 in 7.0 mi West 16.1 mph 27.6 mph N/A Snow Light Snow
12:35 AM 23.0 °F 7.6 °F 19.4 °F 86% 29.96 in 10.0 mi West 21.9 mph 26.5 mph N/A   Overcast
12:55 AM 23.0 °F 8.3 °F 19.4 °F 86% 29.96 in 10.0 mi West 19.6 mph 26.5 mph N/A   Overcast
1:15 AM 23.0 °F 8.3 °F 19.4 °F 86% 29.96 in 7.0 mi West 19.6 mph 28.8 mph N/A   Overcast
1:35 AM 23.0 °F 10.1 °F 19.4 °F 86% 29.97 in 4.0 mi West 15.0 mph 25.3 mph N/A Snow Light Snow
1:55 AM 23.0 °F 8.7 °F 19.4 °F 86% 29.98 in 10.0 mi West 18.4 mph 29.9 mph N/A Snow Light Snow
2:15 AM 23.0 °F 9.6 °F 19.4 °F 86% 29.99 in 7.0 mi WNW 16.1 mph 28.8 mph N/A Snow Light Snow
2:35 AM 23.0 °F 8.7 °F 19.4 °F 86% 30.00 in 7.0 mi WNW 18.4 mph 26.5 mph N/A Snow Light Snow
2:55 AM 23.0 °F 8.3 °F 17.6 °F 80% 30.01 in 5.0 mi West 19.6 mph 28.8 mph N/A Snow Light Snow
3:15 AM 23.0 °F 8.0 °F 19.4 °F 86% 30.02 in 3.0 mi WNW 20.7 mph 28.8 mph N/A Snow Light Snow
3:35 AM 21.2 °F 7.3 °F 17.6 °F 86% 30.03 in 3.0 mi WNW 16.1 mph 32.2 mph N/A Snow Light Snow
3:55 AM 21.2 °F 6.0 °F 17.6 °F 86% 30.04 in 3.0 mi WNW 19.6 mph 28.8 mph N/A Snow Light Snow
4:15 AM 21.2 °F 6.0 °F 17.6 °F 86% 30.05 in 3.0 mi WNW 19.6 mph 26.5 mph N/A Snow Light Snow
4:35 AM 21.2 °F 7.8 °F 17.6 °F 86% 30.06 in 3.0 mi WNW 15.0 mph 27.6 mph N/A Snow Light Snow
4:55 AM 21.2 °F 6.4 °F 17.6 °F 86% 30.07 in 3.0 mi WNW 18.4 mph 26.5 mph N/A Snow Light Snow
5:15 AM 21.2 °F 6.8 °F 17.6 °F 86% 30.08 in 4.0 mi WNW 17.3 mph 25.3 mph N/A Snow Light Snow
5:35 AM 21.2 °F 6.8 °F 17.6 °F 86% 30.09 in 7.0 mi WNW 17.3 mph 26.5 mph N/A Snow Light Snow
5:55 AM 23.0 °F 10.6 °F 17.6 °F 80% 30.11 in 5.0 mi WNW 13.8 mph 24.2 mph N/A Snow Light Snow
6:15 AM 23.0 °F 10.6 °F 17.6 °F 80% 30.12 in 5.0 mi WNW 13.8 mph 23.0 mph N/A Snow Light Snow
6:35 AM 23.0 °F 10.1 °F 17.6 °F 80% 30.13 in 4.0 mi WNW 15.0 mph 21.9 mph N/A Snow Light Snow
6:55 AM 23.0 °F 10.6 °F 17.6 °F 80% 30.14 in 10.0 mi NW 13.8 mph 19.6 mph N/A Snow Light Snow
7:15 AM 23.0 °F 7.2 °F 15.8 °F 74% 30.16 in 4.0 mi NNW 23.0 mph 29.9 mph N/A Snow Light Snow
7:35 AM 21.2 °F 8.3 °F 14.0 °F 74% 30.17 in 10.0 mi NW 13.8 mph 26.5 mph N/A   Overcast
7:55 AM 21.2 °F 6.8 °F 14.0 °F 74% 30.18 in 10.0 mi NW 17.3 mph 24.2 mph N/A   Overcast
8:15 AM 21.2 °F 6.4 °F 14.0 °F 74% 30.19 in 10.0 mi NW 18.4 mph 25.3 mph N/A   Overcast
8:35 AM 23.0 °F 9.2 °F 14.0 °F 68% 30.20 in 10.0 mi NNW 17.3 mph 29.9 mph N/A   Overcast
8:55 AM 23.0 °F 8.3 °F 15.8 °F 74% 30.20 in 10.0 mi NW 19.6 mph 26.5 mph N/A   Overcast
9:15 AM 23.0 °F 9.6 °F 17.6 °F 80% 30.22 in 10.0 mi NW 16.1 mph 24.2 mph N/A Snow Light Snow
9:35 AM 24.8 °F 10.7 °F 17.6 °F 74% 30.23 in 10.0 mi NW 19.6 mph 27.6 mph N/A   Overcast
9:55 AM 24.8 °F 12.4 °F 17.6 °F 74% 30.24 in 10.0 mi NNW 15.0 mph 25.3 mph N/A   Overcast
10:15 AM 24.8 °F 12.9 °F 17.6 °F 74% 30.25 in 10.0 mi NNW 13.8 mph 26.5 mph N/A Snow Light Snow
10:35 AM 26.6 °F 14.3 °F 17.6 °F 69% 30.26 in 10.0 mi NW 16.1 mph 24.2 mph N/A   Overcast
10:55 AM 26.6 °F 14.3 °F 17.6 °F 69% 30.27 in 10.0 mi NW 16.1 mph 25.3 mph N/A   Overcast
11:15 AM 26.6 °F 12.7 °F 17.6 °F 69% 30.26 in 10.0 mi NNW 20.7 mph 26.5 mph N/A   Overcast
11:35 AM 26.6 °F 15.7 °F 17.6 °F 69% 30.28 in 10.0 mi NNW 12.7 mph 26.5 mph N/A   Overcast
11:55 AM 26.6 °F 13.1 °F 17.6 °F 69% 30.27 in 10.0 mi NW 19.6 mph 25.3 mph N/A   Overcast
12:15 PM 26.6 °F 13.8 °F 17.6 °F 69% 30.28 in 10.0 mi NW 17.3 mph 24.2 mph N/A   Overcast
12:35 PM 26.6 °F 13.4 °F 17.6 °F 69% 30.28 in 10.0 mi NNW 18.4 mph 25.3 mph N/A   Overcast
12:55 PM 26.6 °F 13.8 °F 17.6 °F 69% 30.28 in 10.0 mi NW 17.3 mph 25.3 mph N/A   Overcast
1:15 PM 26.6 °F 13.4 °F 17.6 °F 69% 30.28 in 10.0 mi NNW 18.4 mph 26.5 mph N/A   Overcast
1:35 PM 26.6 °F 15.7 °F 17.6 °F 69% 30.29 in 10.0 mi NW 12.7 mph 24.2 mph N/A   Overcast
1:55 PM 26.6 °F 14.3 °F 17.6 °F 69% 30.30 in 10.0 mi NW 16.1 mph 24.2 mph N/A   Overcast
2:15 PM 26.6 °F 16.2 °F 17.6 °F 69% 30.30 in 10.0 mi NW 11.5 mph - N/A   Overcast
2:35 PM 26.6 °F 14.7 °F 19.4 °F 74% 30.30 in 10.0 mi NW 15.0 mph 18.4 mph N/A   Overcast
2:55 PM 26.6 °F 16.2 °F 19.4 °F 74% 30.31 in 10.0 mi NW 11.5 mph 19.6 mph N/A   Overcast
3:15 PM 26.6 °F 14.7 °F 17.6 °F 69% 30.31 in 10.0 mi NNW 15.0 mph 19.6 mph N/A   Overcast
3:35 PM 26.6 °F 16.2 °F 17.6 °F 69% 30.33 in 10.0 mi NW 11.5 mph 24.2 mph N/A   Overcast
3:55 PM 26.6 °F 16.2 °F 17.6 °F 69% 30.33 in 10.0 mi NW 11.5 mph 20.7 mph N/A   Overcast
4:15 PM 26.6 °F 15.7 °F 17.6 °F 69% 30.34 in 10.0 mi NW 12.7 mph 23.0 mph N/A   Overcast
4:35 PM 26.6 °F 16.8 °F 17.6 °F 69% 30.34 in 10.0 mi NW 10.4 mph 18.4 mph N/A   Overcast
4:55 PM 24.8 °F 12.9 °F 17.6 °F 74% 30.34 in 10.0 mi NW 13.8 mph 19.6 mph N/A   Overcast
5:15 PM 24.8 °F 13.4 °F 17.6 °F 74% 30.35 in 10.0 mi NNW 12.7 mph - N/A   Overcast
5:35 PM 24.8 °F 15.3 °F 17.6 °F 74% 30.36 in 10.0 mi NNW 9.2 mph - N/A   Overcast
5:55 PM 23.0 °F 14.7 °F 17.6 °F 80% 30.36 in 10.0 mi NNW 6.9 mph - N/A   Overcast
6:15 PM 23.0 °F 13.1 °F 17.6 °F 80% 30.36 in 10.0 mi NNW 9.2 mph - N/A   Overcast
6:35 PM 23.0 °F 12.4 °F 17.6 °F 80% 30.36 in 10.0 mi NW 10.4 mph - N/A   Overcast
6:55 PM 23.0 °F 12.4 °F 17.6 °F 80% 30.36 in 10.0 mi NW 10.4 mph 17.3 mph N/A   Overcast
7:15 PM 23.0 °F 11.1 °F 17.6 °F 80% 30.36 in 10.0 mi NNW 12.7 mph 16.1 mph N/A   Overcast
7:35 PM 23.0 °F 13.1 °F 15.8 °F 74% 30.36 in 10.0 mi NNW 9.2 mph - N/A   Overcast
7:55 PM 23.0 °F 14.7 °F 15.8 °F 74% 30.36 in 10.0 mi NNW 6.9 mph - N/A   Overcast
8:15 PM 23.0 °F 14.7 °F 14.0 °F 68% 30.36 in 10.0 mi NNW 6.9 mph - N/A   Mostly Cloudy
8:35 PM 21.2 °F 11.7 °F 14.0 °F 74% 30.36 in 10.0 mi NNW 8.1 mph - N/A   Scattered Clouds
8:55 PM 21.2 °F 11.7 °F 14.0 °F 74% 30.36 in 10.0 mi NW 8.1 mph - N/A   Clear
9:15 PM 21.2 °F 10.1 °F 14.0 °F 74% 30.36 in 10.0 mi NW 10.4 mph - N/A   Mostly Cloudy
9:35 PM 21.2 °F 9.5 °F 14.0 °F 74% 30.36 in 10.0 mi NW 11.5 mph - N/A   Overcast
9:55 PM 21.2 °F 10.9 °F 14.0 °F 74% 30.36 in 10.0 mi NW 9.2 mph - N/A   Overcast
10:15 PM 19.4 °F 8.6 °F 14.0 °F 80% 30.36 in 10.0 mi NW 9.2 mph - N/A   Scattered Clouds
10:35 PM 19.4 °F 8.6 °F 12.2 °F 74% 30.36 in 10.0 mi NW 9.2 mph - N/A   Clear
10:55 PM 17.6 °F 9.3 °F 12.2 °F 79% 30.36 in 10.0 mi NW 5.8 mph - N/A   Clear
11:15 PM 17.6 °F 9.3 °F 12.2 °F 79% 30.35 in 10.0 mi NW 5.8 mph - N/A   Clear
11:35 PM 15.8 °F 10.2 °F 12.2 °F 86% 30.35 in 10.0 mi WNW 3.5 mph - N/A   Clear
11:55 PM 15.8 °F 8.6 °F 12.2 °F 86% 30.35 in 10.0 mi WNW 4.6 mph - N/A   Clear